This is the latest recevied weather packets stored in our database for station/object KM4CBK. If no packets are shown the sender has not sent any weather packets the latest 1 day(s).
| Time | Temp. | Humidity | Pressure | Rain* | Wind** | Luminosity | Snow |
|---|---|---|---|---|---|---|---|
| 1778068526 | 19.44° C | 99% | 1013.3 hPa | 0 mm | - | 27 W/m² | - |
| 1778067620 | 19.44° C | 99% | 1013.1 hPa | 0 mm | - | 17 W/m² | - |
| 1778066711 | 18.89° C | 99% | 1012.8 hPa | 0 mm | - | 12 W/m² | - |
| 1778066107 | 18.89° C | 99% | 1012.8 hPa | 0 mm | - | 5 W/m² | - |
| 1778065501 | 18.89° C | 99% | 1012.5 hPa | 0 mm | - | 2 W/m² | - |
| 1778063684 | 18.33° C | 99% | 1012 hPa | 0 mm | - | 0 W/m² | - |
| 1778063079 | 18.89° C | 99% | 1011.7 hPa | 0 mm | - | 0 W/m² | - |
| 1778062776 | 18.33° C | 99% | 1011.3 hPa | 0 mm | - | 0 W/m² | - |
| 1778062472 | 18.33° C | 99% | 1011.3 hPa | 0 mm | - | 0 W/m² | - |
| 1778062170 | 18.33° C | 99% | 1011.2 hPa | 0 mm | - | 0 W/m² | - |
| 1778061868 | 18.33° C | 99% | 1011.3 hPa | 0 mm | - | 0 W/m² | - |
| 1778061264 | 18.33° C | 99% | 1011 hPa | 0 mm | - | 0 W/m² | - |
| 1778059751 | 17.78° C | 99% | 1010.9 hPa | 0 mm | - | 0 W/m² | - |
| 1778059449 | 17.78° C | 99% | 1011 hPa | 0 mm | - | 0 W/m² | - |
| 1778059145 | 17.78° C | 99% | 1011 hPa | 0 mm | - | 0 W/m² | - |
| 1778058540 | 17.22° C | 99% | 1010.9 hPa | 0 mm | - | 0 W/m² | - |
| 1778058238 | 17.22° C | 99% | 1011.2 hPa | 0 mm | - | 0 W/m² | - |
| 1778057631 | 17.22° C | 99% | 1011 hPa | 0 mm | - | 0 W/m² | - |
| 1778056418 | 17.78° C | 99% | 1011.2 hPa | 0 mm | - | 0 W/m² | - |
| 1778055508 | 17.78° C | 99% | 1011.1 hPa | 0 mm | - | 0 W/m² | - |
| 1778054298 | 17.78° C | 99% | 1011.1 hPa | 0 mm | - | 0 W/m² | - |
| 1778053995 | 17.78° C | 99% | 1010.9 hPa | 0 mm | - | 0 W/m² | - |
| 1778053692 | 17.78° C | 99% | 1011.2 hPa | 0 mm | - | 0 W/m² | - |
| 1778053389 | 17.78° C | 98% | 1011.4 hPa | 0 mm | - | 0 W/m² | - |
| 1778052481 | 18.33° C | 98% | 1011.4 hPa | 0 mm | - | 0 W/m² | - |
* Rain latest hour (hover to see other rain measurements)
** Current wind speed in m/s (hover to see current wind gust speed)